Tracking 19177 objects as of 24-May-2018
HD Live streaming from Space Station
objects crossing your sky now

FENGYUN 1C DEB

Track FENGYUN 1C DEB now!
10-day predictions


NORAD ID: 29929
Int'l Code: 1999-025JB
Perigee: 826.9 km
Apogee: 1,036.2 km
Inclination: 98.6 °
Period: 103.5 minutes
Semi major axis: 7302 km
RCS: 0.0297 m2 (small)
Launch date: May 10, 1999
Source: People's Republic of China (PRC)
Launch site: Taiyaun Space Center, China (TSC)

Note: This is SATELLITE DEBRIS
aabbcc
Your satellite tracking list
Your tracking list is empty




NASA's NSSDC Master Catalog

Two Line Element Set (TLE):
1 29929U 99025JB  18144.18430816  .00000515  00000-0  40647-3 0  9990
2 29929  98.6127 220.2913 0143291 261.7296 151.3703 13.91205473575202
Source of the keplerian elements: AFSPC